Location: ASU Dark Sky Observatory
(36.2504°N, 81.4125°W)
Time: 01:22:02
(UTC-04:00)

Amateur Radio Satellites - All Passes

Search period start: 31 July 2014 00:52
Search period end: 01 August 2014 00:52
Location: ASU Dark Sky Observatory, 36.2504°N, 81.4125°W

Satellite Date Start Highest point End Downlink Frequencies (MHz)
Time Altitude Azimuth
UOSAT-12 31 Jul 01:25:00 01:26:02 11° 254° (WSW) 01:27:03 437.025 FM, 437.400 FM
Sapphire 31 Jul 01:25:10 01:30:27 56° 300° (WNW) 01:35:47 437.095 MHz 1200 baud AX-25 AFSK
Oscar 19 31 Jul 01:50:32 01:53:22 15° 92° (E) 01:56:11 437.125 CW, 437.150 USB
RS-15 31 Jul 01:53:26 01:59:00 15° 261° (W) 02:04:41 29.354 - 29.394 USB, Beacon 29.352 USB
PCSat 31 Jul 01:59:20 02:03:54 28° 306° (NW) 02:08:31 145.825 MHz
Oscar 10/S400 31 Jul 02:16:31 02:59:04 70° 194° (SSW) 12:22:50 145.825 - 145.975 CW/USB, Beacon 145.810 USB
Oscar 16 31 Jul 02:17:54 02:22:24 30° 97° (E) 02:26:54 437.025 USB, Beacon 2401.1428
JAS-1B 31 Jul 02:19:52 02:23:25 13° 83° (E) 02:26:46 435.800 - 435.900 CW/SSB
ITAMSAT 1 31 Jul 02:43:38 02:47:36 22° 95° (E) 02:51:32 435.822 SSB
Uribyol 2 31 Jul 03:01:55 03:06:39 36° 98° (E) 03:11:22 436.500 FM
AO-27 31 Jul 03:02:50 03:07:34 35° 98° (E) 03:12:15 436.795 MHz FM
TMSAT-1 31 Jul 03:13:53 03:15:49 12° 91° (E) 03:17:45 436.925 FM
PANSAT 31 Jul 03:22:17 03:23:03 11° 159° (SSE) 03:23:49 not established
AO-Echo 31 Jul 03:27:32 03:32:32 66° 101° (E) 03:37:20 ?
Oscar 19 31 Jul 03:27:57 03:33:01 57° 287° (WNW) 03:38:04 437.125 CW, 437.150 USB
Gurwin Techsat 1B 31 Jul 03:37:22 03:42:03 31° 97° (E) 03:46:41 435.225 FM
OPAL 31 Jul 03:50:51 03:55:00 28° 66° (ENE) 03:59:10 ?
Oscar 16 31 Jul 03:57:15 04:01:39 29° 291° (WNW) 04:06:02 437.025 USB, Beacon 2401.1428
JAS-1B 31 Jul 04:06:22 04:15:35 79° 103° (ESE) 04:23:15 435.800 - 435.900 CW/SSB
ITAMSAT 1 31 Jul 04:22:25 04:27:10 38° 290° (WNW) 04:31:54 435.822 SSB
AO-7 31 Jul 04:40:34 04:47:02 25° 95° (E) 04:53:25 29.400 - 29.500 MHz
Uribyol 2 31 Jul 04:41:50 04:45:54 24° 293° (WNW) 04:49:57 436.500 FM
AO-27 31 Jul 04:42:44 04:46:52 25° 293° (WNW) 04:50:58 436.795 MHz FM
TMSAT-1 31 Jul 04:50:55 04:56:12 70° 285° (WNW) 05:01:26 436.925 FM
PANSAT 31 Jul 04:59:35 05:02:38 22° 171° (S) 05:05:40 not established
AO-Echo 31 Jul 05:08:31 05:10:39 13° 298° (WNW) 05:12:45 ?
Gurwin Techsat 1B 31 Jul 05:17:23 05:21:54 29° 292° (WNW) 05:26:23 435.225 FM
ISS 31 Jul 05:22:25 05:25:08 22° 31° (NNE) 05:27:51 145.800 FM
Uosat F 31 Jul 05:26:22 05:31:17 54° 101° (E) 05:36:09 435.120 FM
OPAL 31 Jul 05:29:31 05:33:46 29° 261° (W) 05:38:03 ?
KITSAT 1 31 Jul 05:56:23 06:04:09 53° 111° (ESE) 06:11:56 435.175 FM
JAS-1B 31 Jul 05:58:15 06:04:49 23° 304° (NW) 06:10:47 435.800 - 435.900 CW/SSB
STRAND 1 31 Jul 06:18:25 06:21:54 19° 65° (ENE) 06:25:24 ?
Hamsat 31 Jul 06:22:29 06:24:53 15° 93° (E) 06:27:16 145.90 MHz
AO-7 31 Jul 06:32:04 06:40:16 65° 292° (WNW) 06:48:24 29.400 - 29.500 MHz
MaSat-1 31 Jul 06:33:22 06:38:13 36° 59° (ENE) 06:42:46 437.345 MHz
PANSAT 31 Jul 06:39:08 06:42:20 25° 184° (S) 06:45:32 not established
Saudisat 1A 31 Jul 06:50:44 06:54:26 27° 112° (ESE) 06:58:09 436.775 MHz
ISS 31 Jul 06:58:48 07:01:56 37° 227° (SW) 07:05:04 145.800 FM
JAS-2 31 Jul 06:58:59 07:03:54 30° 95° (E) 07:08:27 435.800 - 435.900 CW/SSB, 435.910 FM
Uosat F 31 Jul 07:06:37 07:09:35 16° 296° (WNW) 07:12:32 435.120 FM
KITSAT 1 31 Jul 07:52:35 07:59:47 34° 310° (NW) 08:07:01 435.175 FM
STRAND 1 31 Jul 07:55:45 08:00:41 47° 260° (W) 08:05:39 ?
Hamsat 31 Jul 07:56:56 08:00:59 41° 287° (WNW) 08:05:04 145.90 MHz
MaSat-1 31 Jul 08:11:07 08:15:18 25° 257° (WSW) 08:19:14 437.345 MHz
PANSAT 31 Jul 08:19:44 08:21:59 15° 197° (SSW) 08:24:14 not established
SO-67 31 Jul 08:22:10 08:25:35 53° 100° (E) 08:28:59 435.3500 MHz FM
AO-7 31 Jul 08:28:19 08:31:25 13° 311° (NW) 08:34:32 29.400 - 29.500 MHz
Saudisat 1A 31 Jul 08:30:07 08:33:55 28° 308° (NW) 08:37:45 436.775 MHz
JAS-2 31 Jul 08:44:02 08:48:56 30° 293° (WNW) 08:53:30 435.800 - 435.900 CW/SSB, 435.910 FM
PCSat 31 Jul 09:06:33 09:10:25 19° 50° (NE) 09:14:15 145.825 MHz
Sapphire 31 Jul 10:15:38 10:21:03 66° 62° (ENE) 10:26:25 437.095 MHz 1200 baud AX-25 AFSK
UKube-1 31 Jul 10:22:36 10:26:43 41° 99° (E) 10:30:48 145.840 MHz, 145.915 MHz
HO-68 31 Jul 10:22:59 10:30:05 64° 103° (ESE) 10:37:08 435.675 MHz FM
PCSat 31 Jul 10:48:53 10:54:12 58° 247° (WSW) 10:59:29 145.825 MHz
Oscar 11 31 Jul 11:04:52 11:09:12 68° 101° (E) 11:13:31 145.825 FM, Beacon 2401.500 USB
FUNcube-1 31 Jul 11:33:21 11:37:25 48° 100° (E) 11:41:32 145.950 - 145.970 MHz USB
RS-15 31 Jul 11:50:01 11:57:00 19° 100° (E) 12:03:51 29.354 - 29.394 USB, Beacon 29.352 USB
UKube-1 31 Jul 11:59:58 12:02:33 16° 294° (WNW) 12:05:08 145.840 MHz, 145.915 MHz
Sapphire 31 Jul 12:01:07 12:03:50 14° 257° (WSW) 12:06:33 437.095 MHz 1200 baud AX-25 AFSK
SO-50 31 Jul 12:04:19 12:08:32 45° 115° (ESE) 12:12:50 436.795 FM
HO-68 31 Jul 12:11:54 12:17:10 23° 300° (WNW) 12:22:26 435.675 MHz FM
JAS-1B 31 Jul 13:01:52 13:05:23 13° 49° (NE) 13:08:58 435.800 - 435.900 CW/SSB
Oscar 19 31 Jul 13:05:07 13:08:23 17° 65° (ENE) 13:11:38 437.125 CW, 437.150 USB
FUNcube-1 31 Jul 13:11:39 13:13:24 12° 294° (WNW) 13:15:09 145.950 - 145.970 MHz USB
Oscar 16 31 Jul 13:32:26 13:36:59 33° 70° (ENE) 13:41:33 437.025 USB, Beacon 2401.1428
SO-50 31 Jul 13:46:07 13:49:18 19° 312° (NW) 13:52:33 436.795 FM
UOSAT-12 31 Jul 13:50:39 13:54:53 39° 114° (ESE) 13:59:13 437.025 FM, 437.400 FM
KITSAT 1 31 Jul 13:53:25 13:58:44 18° 40° (NE) 14:04:01 435.175 FM
RS-15 31 Jul 13:56:35 14:07:49 90° 298° (WNW) 14:18:48 29.354 - 29.394 USB, Beacon 29.352 USB
ITAMSAT 1 31 Jul 13:59:08 14:03:26 27° 68° (ENE) 14:07:45 435.822 SSB
Uribyol 2 31 Jul 14:17:13 14:22:05 42° 71° (ENE) 14:26:58 436.500 FM
AO-27 31 Jul 14:18:22 14:23:15 42° 71° (ENE) 14:28:09 436.795 MHz FM
TMSAT-1 31 Jul 14:31:47 14:34:56 16° 64° (ENE) 14:38:05 436.925 FM
AO-Echo 31 Jul 14:37:10 14:42:25 66° 74° (ENE) 14:47:42 ?
Oscar 19 31 Jul 14:42:19 14:47:16 51° 260° (W) 14:52:16 437.125 CW, 437.150 USB
JAS-1B 31 Jul 14:44:55 14:53:35 57° 68° (ENE) 15:03:07 435.800 - 435.900 CW/SSB
Gurwin Techsat 1B 31 Jul 14:55:53 15:00:45 38° 70° (ENE) 15:05:38 435.225 FM
Oscar 16 31 Jul 15:12:11 15:16:20 25° 264° (W) 15:20:30 437.025 USB, Beacon 2401.1428
Saudisat 1A 31 Jul 15:20:52 15:22:52 13° 45° (NE) 15:24:51 436.775 MHz
UOSAT-12 31 Jul 15:31:32 15:35:09 22° 311° (NW) 15:38:51 437.025 FM, 437.400 FM
AO-7 31 Jul 15:36:58 15:43:46 29° 59° (ENE) 15:50:34 29.400 - 29.500 MHz
ITAMSAT 1 31 Jul 15:38:07 15:42:46 33° 263° (W) 15:47:26 435.822 SSB
KITSAT 1 31 Jul 15:47:23 15:55:30 78° 61° (ENE) 16:03:33 435.175 FM
Uribyol 2 31 Jul 15:57:56 16:01:42 20° 266° (W) 16:05:28 436.500 FM
AO-27 31 Jul 15:59:04 16:02:53 21° 266° (W) 16:06:44 436.795 MHz FM
TMSAT-1 31 Jul 16:09:07 16:14:19 59° 259° (W) 16:19:34 436.925 FM
RS-15 31 Jul 16:12:54 16:21:44 27° 323° (NW) 16:30:33 29.354 - 29.394 USB, Beacon 29.352 USB
AO-Echo 31 Jul 16:19:04 16:21:34 13° 269° (W) 16:24:04 ?
JAS-1B 31 Jul 16:36:28 16:44:18 35° 267° (W) 16:52:57 435.800 - 435.900 CW/SSB
Gurwin Techsat 1B 31 Jul 16:36:37 16:40:46 23° 265° (W) 16:44:58 435.225 FM
Uosat F 31 Jul 16:36:58 16:41:53 57° 73° (ENE) 16:46:50 435.120 FM
Saudisat 1A 31 Jul 16:58:33 17:02:57 73° 242° (WSW) 17:07:18 436.775 MHz
JAS-2 31 Jul 17:09:28 17:13:19 15° 60° (ENE) 17:17:01 435.800 - 435.900 CW/SSB, 435.910 FM
AO-7 31 Jul 17:27:45 17:35:58 61° 256° (WSW) 17:44:15 29.400 - 29.500 MHz
OPAL 31 Jul 17:40:53 17:46:01 88° 106° (ESE) 17:51:10 ?
KITSAT 1 31 Jul 17:44:40 17:49:57 19° 258° (WSW) 17:55:14 435.175 FM
Uosat F 31 Jul 18:18:23 18:20:59 14° 268° (W) 18:23:35 435.120 FM
RS-15 31 Jul 18:35:29 18:39:51 13° 359° (N) 18:44:14 29.354 - 29.394 USB, Beacon 29.352 USB
Hamsat 31 Jul 18:47:19 18:51:30 82° 258° (WSW) 18:55:43 145.90 MHz
JAS-2 31 Jul 18:49:34 18:57:23 81° 75° (ENE) 19:04:41 435.800 - 435.900 CW/SSB, 435.910 FM
SO-67 31 Jul 18:54:41 18:56:11 12° 69° (ENE) 18:57:42 435.3500 MHz FM
OPAL 31 Jul 19:23:13 19:24:08 11° 301° (WNW) 19:25:04 ?
STRAND 1 31 Jul 20:08:50 20:13:57 72° 102° (ESE) 20:19:00 ?
MaSat-1 31 Jul 20:22:36 20:25:39 21° 102° (ESE) 20:29:04 437.345 MHz
SO-67 31 Jul 20:25:52 20:28:56 30° 263° (W) 20:32:03 435.3500 MHz FM
JAS-2 31 Jul 20:37:56 20:42:50 18° 269° (W) 20:47:35 435.800 - 435.900 CW/SSB, 435.910 FM
SO-50 31 Jul 20:38:36 20:42:24 23° 50° (NE) 20:46:14 436.795 FM
HO-68 31 Jul 20:48:57 20:55:21 37° 65° (ENE) 21:01:46 435.675 MHz FM
RS-15 31 Jul 20:49:36 20:58:12 25° 35° (NE) 21:06:56 29.354 - 29.394 USB, Beacon 29.352 USB
UKube-1 31 Jul 21:15:57 21:19:36 27° 70° (ENE) 21:23:16 145.840 MHz, 145.915 MHz
STRAND 1 31 Jul 21:50:26 21:52:28 12° 298° (WNW) 21:54:30 ?
Oscar 11 31 Jul 21:57:29 22:01:26 37° 72° (ENE) 22:05:24 145.825 FM, Beacon 2401.500 USB
MaSat-1 31 Jul 21:59:01 22:02:40 30° 302° (WNW) 22:06:50 437.345 MHz
ISS 31 Jul 22:03:00 22:05:43 24° 131° (SE) 22:08:28 145.800 FM
SO-50 31 Jul 22:18:37 22:23:05 40° 246° (WSW) 22:27:35 436.795 FM
UOSAT-12 31 Jul 22:23:13 22:26:38 19° 48° (NE) 22:30:01 437.025 FM, 437.400 FM
FUNcube-1 31 Jul 22:27:42 22:31:23 29° 71° (ENE) 22:35:02 145.950 - 145.970 MHz USB
HO-68 31 Jul 22:36:22 22:42:56 39° 261° (W) 22:49:32 435.675 MHz FM
UKube-1 31 Jul 22:52:15 22:55:44 23° 264° (W) 22:59:15 145.840 MHz, 145.915 MHz
RS-15 31 Jul 23:01:17 23:12:25 82° 60° (ENE) 23:24:00 29.354 - 29.394 USB, Beacon 29.352 USB
Sapphire 31 Jul 23:15:37 23:17:19 11° 102° (ESE) 23:19:02 437.095 MHz 1200 baud AX-25 AFSK
Oscar 11 31 Jul 23:35:06 23:37:44 16° 267° (W) 23:40:22 145.825 FM, Beacon 2401.500 USB
ISS 31 Jul 23:39:21 23:42:20 30° 326° (NW) 23:45:20 145.800 FM
PCSat 31 Jul 23:45:36 23:50:02 27° 107° (ESE) 23:54:29 145.825 MHz
UOSAT-12 01 Aug 00:02:30 00:07:03 49° 245° (WSW) 00:11:30 437.025 FM, 437.400 FM
FUNcube-1 01 Aug 00:04:35 00:07:46 20° 265° (W) 00:10:56 145.950 - 145.970 MHz USB
